Meteo Giornale » Osservazioni meteo Austria » Vienna-Schwechat

ore: 00:20 - Osservazioni Meteo Vienna-Schwechat
Lat. 48° 7' N Lon. 16° 34' E Alt. 183 metri s.l.m.

coperto Europe/Vienna

16 °C

Coperto

Temp. 24 Ore

10 °C

18 °C

Ovest/Nord-Ovest

62.9 Km/h

Dew point 6 °C

Umidità 51 %

Visibilità  10 Km

Il sole sorge alle ore 06:42

Il sole tramonta alle ore 17:31

Data e Ora Cielo e Fenomeni T °C DP °C Um. % Pres. hPa Vis. km Vento km/h
Oggi h: 00:20 coperto Coperto 16 6 51 1009 10 O/NO 62.9
Ieri h: 23:50 coperto Coperto 17 6 48 1009 10 O/NO 68.5
Ieri h: 23:20 coperto Coperto 17 6 48 1009 10 O/NO 66.6
Ieri h: 22:50 coperto Coperto 18 6 45 1009 10 O/NO 55.5
Ieri h: 22:20 coperto Coperto 18 6 45 1009 10 O 66.6
Ieri h: 21:50 coperto_pioggia Pioggia Debole 18 6 45 1009 10 O/NO 61.1
Ieri h: 21:20 coperto_pioggia Pioggia Debole 18 6 45 1009 10 O/NO 51.8
Ieri h: 20:50 sereno Sereno 18 6 45 1009 10 O 51.8
Ieri h: 20:20 sereno Sereno 18 6 45 1009 10 O/NO 55.5
Ieri h: 19:50 sereno Sereno 17 6 48 1009 10 O 55.5
Ieri h: 19:20 molto_nuvoloso Molto Nuvoloso 18 6 45 1009 10 O 50
Ieri h: 18:50 molto_nuvoloso Molto Nuvoloso 18 6 45 1009 10 O 50
Ieri h: 18:20 molto_nuvoloso Molto Nuvoloso 17 6 48 1010 10 O 55.5
Ieri h: 17:50 molto_nuvoloso Molto Nuvoloso 17 6 48 1010 10 O 50
Ieri h: 17:20 molto_nuvoloso Molto Nuvoloso 17 6 48 1011 10 O 40.7
Ieri h: 16:50 molto_nuvoloso Molto Nuvoloso 17 6 48 1011 10 O 44.4
Ieri h: 16:20 molto_nuvoloso Molto Nuvoloso 16 5 47 1012 10 O 33.3
Ieri h: 15:50 molto_nuvoloso Molto Nuvoloso 16 5 47 1013 10 O 31.5
Ieri h: 15:20 molto_nuvoloso Molto Nuvoloso 16 6 51 1014 10 SO 24
Ieri h: 14:50 molto_nuvoloso Molto Nuvoloso 16 5 47 1014 10 O/SO 29.6
Ieri h: 14:20 molto_nuvoloso Molto Nuvoloso 15 6 54 1015 10 O 25.9
Ieri h: 13:50 molto_nuvoloso Molto Nuvoloso 14 5 54 1016 10 O 31.5
Ieri h: 13:20 molto_nuvoloso Molto Nuvoloso 14 6 58 1017 10 O 37
Ieri h: 12:50 coperto_pioggia Pioggia Debole 14 5 54 1018 10 O 38.8
Ieri h: 12:20 molto_nuvoloso Molto Nuvoloso 14 4 50 1019 10 O 38.8
Ieri h: 11:20 molto_nuvoloso Molto Nuvoloso 13 4 54 1020 10 O 35.2
Ieri h: 10:50 molto_nuvoloso Molto Nuvoloso 13 4 54 1021 10 O 31.5
Ieri h: 10:20 molto_nuvoloso Molto Nuvoloso 12 4 57 1021 10 O 37
Ieri h: 09:50 molto_nuvoloso Molto Nuvoloso 11 4 61 1021 10 O 40.7
Ieri h: 09:20 molto_nuvoloso Molto Nuvoloso 11 3 57 1021 10 O 40.7
Ieri h: 08:50 molto_nuvoloso Molto Nuvoloso 11 3 57 1022 10 O 38.8
Ieri h: 08:20 molto_nuvoloso Molto Nuvoloso 10 3 61 1022 10 O 37
Ieri h: 07:50 molto_nuvoloso Molto Nuvoloso 10 4 66 1022 10 O 38.8
Ieri h: 07:20 molto_nuvoloso Molto Nuvoloso 10 4 66 1022 10 O 37
Ieri h: 06:50 molto_nuvoloso Molto Nuvoloso 10 4 66 1022 10 O 46.3
Ieri h: 06:20 molto_nuvoloso Molto Nuvoloso 11 3 57 1023 10 O 42.6
Ieri h: 04:50 sereno Sereno 11 3 57 1023 10 O 29.6
Ieri h: 04:20 sereno Sereno 12 2 50 1022 10 O 27.8
Ieri h: 03:50 coperto_pioggia Pioggia Debole 13 2 47 1022 10 O 22.2
Ieri h: 03:20 coperto_pioggia Pioggia Debole 13 1 43 1022 10 O 22.2
Ieri h: 02:50 sereno Sereno 12 -0 43 1022 10 O/SO 16.7
Ieri h: 02:20 sereno Sereno 12 -1 40 1022 10 O/SO 16.7
Ieri h: 01:50 sereno Sereno 13 -2 35 1023 10 O 22.2
Ieri h: 01:20 sereno Sereno 14 -2 32 1023 10 O 29.6
Ieri h: 00:50 sereno Sereno 14 -2 32 1022 10 O 29.6